Simultaneous Nadir Overpasses (SNOs) Predictions

Prediction of SNOs between AQUA and NPP Satellite Orbit:

Table of predicted SNOs for the next 14.0 days since TLE Epoch: 7/19/2014
Index Date (AQUA) Time (AQUA) Lat,Lon (AQUA) SZA (AQUA ) Date (NPP) Time (NPP) Lat,Lon (NPP) SZA (NPP ) Distance(km) Time Diff (sec)
1 07/19/2014 09:16:53 -48.68, 74.10 74.91 07/19/2014 09:15:59 -48.68, 74.12 74.85 1.55 54
2 07/19/2014 10:03:46 57.55,-113.98 96.39 07/19/2014 10:04:06 57.55,-113.99 96.37 0.82 20
3 07/22/2014 01:32:28 -51.65,-168.75 77.33 07/22/2014 01:32:06 -51.65,-168.76 77.29 1.12 22
4 07/22/2014 02:19:27 60.14, 3.53 94.31 07/22/2014 02:20:19 60.14, 3.51 94.25 0.93 52
5 07/24/2014 17:01:00 46.02, 137.22 108.67 07/24/2014 16:59:56 46.02, 137.26 108.75 3.05 64
6 07/24/2014 17:47:36 -56.25, -50.58 81.31 07/24/2014 17:47:45 -56.25, -50.56 81.34 1.90 9
7 07/24/2014 18:28:10 81.80,-168.70 68.08 07/24/2014 18:29:23 81.23,-168.35 67.85 63.54 73
8 07/27/2014 09:16:26 49.58,-105.49 105.76 07/27/2014 09:15:54 49.59,-105.48 105.80 0.95 32
9 07/27/2014 10:03:31 -58.06, 66.34 82.54 07/27/2014 10:04:13 -58.05, 66.32 82.59 1.58 42
10 07/30/2014 01:31:47 53.42, 12.12 102.61 07/30/2014 01:31:47 53.42, 12.12 102.60 0.66 0
11 07/30/2014 02:18:46 -62.16,-175.02 86.03 07/30/2014 02:20:00 -62.13,-174.98 86.11 3.53 74
12 08/01/2014 17:00:45 -46.51, -42.58 70.10 08/01/2014 17:00:04 -46.52, -42.56 70.05 1.31 41
